Location: Barcelona
(41.3829°N, 2.1774°E)
Time: 18:52:26
(UTC+00:00)

ISS - Pass Details

Date: 08 May 2026
Orbit: 414 x 424 km, 51.6° (Epoch: 17 May)

Event Time Altitude Azimuth Distance (km) Brightness Sun altitude
Rises 22:02:23 0° 271° (W) 2,346 0.4 -26.5°
Reaches altitude 10° 22:04:46 10° 287° (WNW) 1,486 -0.5 -26.7°
Maximum altitude 22:07:28 22° 341° (NNW) 960 -1.2 -26.9°
Enters shadow 22:08:12 21° 1° (N) 1,010 -1.2 -27.0°
